TimeCDT,TemperatureF,Dew PointF,Humidity,Sea Level PressureIn,VisibilityMPH,Wind Direction,Wind SpeedMPH,Gust SpeedMPH,PrecipitationIn,Events,Conditions,WindDirDegrees,DateUTC
12:53 AM,30.9,21.9,69,30.20,10.0,NW,4.6,-,N/A,,Clear,320,2014-04-15 05:53:00
1:53 AM,30.0,21.0,69,30.20,10.0,NW,4.6,-,N/A,,Clear,320,2014-04-15 06:53:00
2:53 AM,30.9,19.9,64,30.20,10.0,NW,4.6,-,N/A,,Clear,320,2014-04-15 07:53:00
3:53 AM,30.0,19.9,66,30.21,10.0,WNW,4.6,-,N/A,,Clear,300,2014-04-15 08:53:00
4:53 AM,30.0,19.9,66,30.22,10.0,Calm,Calm,-,N/A,,Clear,0,2014-04-15 09:53:00
5:53 AM,27.0,21.9,81,30.22,10.0,Calm,Calm,-,N/A,,Clear,0,2014-04-15 10:53:00
6:53 AM,26.1,21.9,84,30.23,10.0,Calm,Calm,-,N/A,,Clear,0,2014-04-15 11:53:00
7:53 AM,28.9,25.0,85,30.25,10.0,Calm,Calm,-,N/A,,Clear,0,2014-04-15 12:53:00
8:53 AM,35.1,27.0,72,30.25,10.0,SSE,3.5,-,N/A,,Clear,160,2014-04-15 13:53:00
9:53 AM,39.9,25.0,55,30.26,10.0,SE,4.6,-,N/A,,Clear,140,2014-04-15 14:53:00
10:53 AM,44.1,24.1,45,30.26,10.0,Variable,3.5,-,N/A,,Clear,0,2014-04-15 15:53:00
11:53 AM,46.9,21.9,37,30.25,10.0,Variable,3.5,-,N/A,,Clear,0,2014-04-15 16:53:00
12:53 PM,51.1,24.1,35,30.22,10.0,SW,8.1,-,N/A,,Clear,230,2014-04-15 17:53:00
1:53 PM,55.0,24.1,30,30.20,10.0,North,9.2,-,N/A,,Clear,360,2014-04-15 18:53:00
2:53 PM,55.9,24.1,29,30.19,10.0,NNW,9.2,-,N/A,,Clear,330,2014-04-15 19:53:00
3:53 PM,55.0,21.9,28,30.16,10.0,West,8.1,-,N/A,,Clear,280,2014-04-15 20:53:00
4:53 PM,55.9,23.0,28,30.14,10.0,Calm,Calm,-,N/A,,Clear,0,2014-04-15 21:53:00
5:53 PM,55.9,21.9,27,30.13,10.0,Calm,Calm,-,N/A,,Clear,0,2014-04-15 22:53:00
6:53 PM,54.0,23.0,30,30.12,10.0,Calm,Calm,-,N/A,,Clear,0,2014-04-15 23:53:00
7:53 PM,51.1,26.1,38,30.12,10.0,ESE,3.5,-,N/A,,Clear,110,2014-04-16 00:53:00
8:53 PM,48.9,26.1,41,30.12,10.0,ESE,3.5,-,N/A,,Clear,120,2014-04-16 01:53:00
9:53 PM,46.9,26.1,44,30.14,10.0,Calm,Calm,-,N/A,,Clear,0,2014-04-16 02:53:00
10:53 PM,42.1,28.0,58,30.14,10.0,SSE,6.9,-,N/A,,Clear,150,2014-04-16 03:53:00
11:53 PM,41.0,28.9,62,30.12,10.0,SSE,8.1,-,N/A,,Clear,150,2014-04-16 04:53:00